DW2199 Weather Reports


Display with metric or nautical units.
time (UTC)temp
F
wind
direction
speed
MPH
gust
MPH
rain 1hr
in
rain 24hr
in
rain mn
in
humidity
%
barometer
mb
20260503020104 42 191 0.0 0.0 0.00 0.00 0.00 81 1011.9
20260503014608 42 191 0.0 0.0 0.00 0.00 0.00 80 1012.0
20260503013051 42 191 0.0 0.0 0.00 0.00 0.00 79 1012.0
20260503011555 42 191 0.0 0.0 0.00 0.00 0.00 78 1012.0
20260503010049 43 191 0.0 1.0 0.00 0.00 0.00 76 1011.9
20260503004546 44 191 0.0 1.0 0.00 0.00 0.00 75 1011.7
20260503003043 44 191 0.0 0.0 0.00 0.00 0.00 72 1011.6
20260503001553 45 191 0.0 0.0 0.00 0.00 0.00 69 1011.5
20260503000037 46 191 0.0 1.0 0.00 0.00 0.00 67 1011.4
20260502234528 47 191 0.0 0.0 0.00 0.00 0.00 61 1011.3
20260502233024 47 191 0.0 0.0 0.00 0.00 0.00 59 1011.2
20260502231519 48 218 0.0 0.0 0.00 0.00 0.00 59 1011.2
20260502230023 48 218 0.0 0.0 0.00 0.00 0.00 57 1011.1
20260502224517 49 262 0.0 1.0 0.00 0.00 0.00 56 1011.0
20260502223018 50 200 0.0 3.0 0.00 0.00 0.00 57 1010.9
20260502221515 50 163 0.0 2.0 0.00 0.00 0.00 57 1010.8
20260502220015 51 192 0.0 1.0 0.00 0.00 0.00 57 1010.6
20260502214505 52 174 0.0 2.0 0.00 0.00 0.00 56 1010.6
20260502213004 52 169 0.0 3.0 0.00 0.00 0.00 57 1010.5
20260502211507 51 216 0.0 5.0 0.00 0.00 0.00 60 1010.4
20260502210004 51 195 0.0 4.0 0.00 0.00 0.00 60 1010.4
20260502204502 51 203 0.0 1.0 0.00 0.00 0.00 62 1010.3
20260502203002 52 205 0.0 4.0 0.00 0.00 0.00 60 1010.2
20260502201501 53 166 0.0 5.0 0.00 0.00 0.00 60 1010.3
20260502200101 52 194 0.0 4.0 0.00 0.00 0.00 60 1010.2
20260502194543 52 279 0.0 2.0 0.00 0.00 0.00 62 1010.3
20260502193043 53 212 0.0 4.0 0.00 0.00 0.00 61 1010.3
20260502191530 53 360 0.0 1.0 0.00 0.00 0.00 61 1010.3
20260502190036 52 8 1.0 5.0 0.00 0.00 0.00 67 1010.3
20260502184542 52 207 0.0 3.0 0.00 0.00 0.00 64 1010.2
20260502183031 53 209 1.0 3.0 0.00 0.00 0.00 67 1010.3
20260502181528 51 210 0.0 2.0 0.00 0.00 0.00 74 1010.5
20260502163055 50 195 0.0 2.0 0.00 0.00 0.00 71 1010.6
20260502161601 50 208 0.0 5.0 0.00 0.00 0.00 75 1010.7
20260502151542 51 190 0.0 4.0 0.00 0.00 0.00 70 1011.1
20260502123002 46 215 0.0 1.0 0.00 0.00 0.00 88 1011.4
20260502121502 46 215 0.0 1.0 0.00 0.00 0.00 89 1011.5
20260502114501 45 216 0.0 1.0 0.00 0.00 0.00 92 1011.1
20260502113000 44 216 0.0 1.0 0.00 0.00 0.00 93 1011.2
20260502111606 44 215 0.0 1.0 0.00 0.00 0.00 93 1011.3
20260502110100 44 215 0.0 1.0 0.00 0.00 0.00 94 1011.1
20260502104547 44 270 0.0 0.0 0.00 0.00 0.00 94 1010.9
20260502103047 44 270 0.0 0.0 0.00 0.00 0.00 94 1010.8
20260502101552 44 270 0.0 0.0 0.00 0.00 0.00 94 1010.7
20260502071510 45 287 0.0 0.0 0.00 0.00 0.00 93 1010.4
20260502070010 45 287 0.0 1.0 0.00 0.00 0.00 92 1010.4
20260502064508 45 294 0.0 0.0 0.00 0.00 0.00 92 1010.6
20260502063022 45 294 0.0 1.0 0.00 0.00 0.00 92 1010.6
20260502061550 45 294 0.0 0.0 0.00 0.00 0.00 92 1010.7
20260502060049 45 294 0.0 0.0 0.00 0.00 0.00 91 1010.8
20260502054532 45 294 0.0 0.0 0.00 0.00 0.00 91 1010.8
20260502053030 46 294 0.0 0.0 0.00 0.00 0.00 90 1010.8
20260502051519 46 294 0.0 0.0 0.00 0.00 0.00 90 1011.0
20260502050023 46 294 0.0 0.0 0.00 0.00 0.00 89 1011.0
20260502044515 47 294 0.0 0.0 0.00 0.00 0.00 86 1011.1
20260502043014 48 294 0.0 0.0 0.00 0.00 0.00 84 1011.0
20260502041514 48 294 0.0 1.0 0.00 0.00 0.00 82 1011.0
20260502040013 48 293 0.0 1.0 0.00 0.00 0.00 81 1010.9
20260502034512 48 291 0.0 0.0 0.00 0.00 0.00 81 1010.8
20260502033012 48 291 0.0 0.0 0.00 0.00 0.00 80 1010.8
20260502031612 49 291 0.0 0.0 0.00 0.00 0.00 80 1010.7
20260502030100 49 291 0.0 1.0 0.00 0.00 0.00 80 1010.8
20260502024559 49 291 0.0 0.0 0.00 0.00 0.00 77 1010.9
20260502023059 50 291 0.0 0.0 0.00 0.00 0.00 76 1010.8
20260502021557 50 291 0.0 1.0 0.00 0.00 0.00 75 1010.7